TimeEST,TemperatureF,Dew PointF,Humidity,Sea Level PressureIn,VisibilityMPH,Wind Direction,Wind SpeedMPH,Gust SpeedMPH,PrecipitationIn,Events,Conditions,WindDirDegrees,DateUTC
12:53 AM,55.0,48.9,80,30.17,9.0,ENE,4.6,-,N/A,,Clear,60,2013-03-09 05:53:00
1:53 AM,54.0,48.0,80,30.16,8.0,NE,3.5,-,N/A,,Clear,40,2013-03-09 06:53:00
2:53 AM,54.0,48.0,80,30.14,8.0,Calm,Calm,-,N/A,,Clear,0,2013-03-09 07:53:00
3:53 AM,53.1,46.9,80,30.14,8.0,NE,3.5,-,N/A,,Clear,50,2013-03-09 08:53:00
4:53 AM,52.0,46.9,83,30.14,8.0,ENE,3.5,-,N/A,,Clear,60,2013-03-09 09:53:00
5:53 AM,51.1,48.0,89,30.16,6.0,NE,3.5,-,N/A,,Clear,50,2013-03-09 10:53:00
6:53 AM,48.9,46.9,93,30.17,5.0,NE,4.6,-,N/A,,Clear,50,2013-03-09 11:53:00
7:53 AM,54.0,48.9,83,30.19,6.0,NE,4.6,-,N/A,,Haze,50,2013-03-09 12:53:00
8:53 AM,63.0,50.0,63,30.19,8.0,NE,8.1,-,N/A,,Clear,50,2013-03-09 13:53:00
9:53 AM,69.1,51.1,53,30.20,10.0,East,9.2,-,N/A,,Clear,80,2013-03-09 14:53:00
10:53 AM,73.9,45.0,35,30.19,10.0,ENE,9.2,-,N/A,,Clear,60,2013-03-09 15:53:00
11:53 AM,75.0,44.1,33,30.18,10.0,East,6.9,-,N/A,,Clear,80,2013-03-09 16:53:00
12:53 PM,77.0,43.0,30,30.17,10.0,East,8.1,-,N/A,,Clear,90,2013-03-09 17:53:00
1:53 PM,79.0,43.0,28,30.11,10.0,East,12.7,-,N/A,,Clear,80,2013-03-09 18:53:00
2:53 PM,77.0,39.9,26,30.12,10.0,NE,8.1,-,N/A,,Clear,40,2013-03-09 19:53:00
3:53 PM,77.0,41.0,28,30.10,10.0,ENE,9.2,-,N/A,,Clear,60,2013-03-09 20:53:00
4:53 PM,75.0,45.0,34,30.11,10.0,NE,9.2,-,N/A,,Clear,40,2013-03-09 21:53:00
5:53 PM,72.0,44.1,37,30.11,10.0,NE,8.1,-,N/A,,Clear,40,2013-03-09 22:53:00
6:53 PM,70.0,44.1,39,30.13,10.0,North,3.5,-,N/A,,Clear,10,2013-03-09 23:53:00
7:53 PM,68.0,50.0,52,30.16,10.0,ENE,10.4,-,N/A,,Clear,60,2013-03-10 00:53:00
8:53 PM,66.0,52.0,60,30.18,10.0,East,6.9,-,N/A,,Clear,80,2013-03-10 01:53:00
9:53 PM,64.0,53.1,67,30.18,10.0,East,8.1,-,N/A,,Clear,80,2013-03-10 02:53:00
10:53 PM,63.0,53.1,70,30.18,10.0,East,6.9,-,N/A,,Clear,100,2013-03-10 03:53:00
11:53 PM,61.0,52.0,72,30.16,10.0,East,6.9,-,N/A,,Clear,90,2013-03-10 04:53:00